owner,sensor,date,latitude,longitude,vertical_datum,direction_of_sea_water_velocity,sea_water_speed,upward_sea_water_velocity,qcFlag 
TABS,ioos:station:wmo:42044:1,2006-12-01T00:00:00Z,26.1914,-97.0507,2.0,174.1077371,62.83193853,-99999.0,'11111222,11111222,99999999' 
TABS,ioos:station:wmo:42044:1,2006-12-01T00:30:00Z,26.1914,-97.0507,2.0,179.2714557,62.93508481,-99999.0,'11111222,11111222,99999999' 
TABS,ioos:station:wmo:42044:1,2006-12-01T01:00:00Z,26.1914,-97.0507,2.0,184.7177245,64.55874612,-99999.0,'11111222,11111222,99999999' 
TABS,ioos:station:wmo:42044:1,2006-12-01T01:30:00Z,26.1914,-97.0507,2.0,181.2482517,64.25525348,-99999.0,'11111222,11111222,99999999' 
TABS,ioos:station:wmo:42044:1,2006-12-01T02:00:00Z,26.1914,-97.0507,2.0,180.3736101,62.84133751,-99999.0,'11111222,11111222,99999999' 
TABS,ioos:station:wmo:42044:1,2006-12-01T02:30:00Z,26.1914,-97.0507,2.0,179.1276296,59.12685008,-99999.0,'11111222,11111222,99999999' 
TABS,ioos:station:wmo:42044:1,2006-12-01T03:00:00Z,26.1914,-97.0507,2.0,180.4879097,62.21225763,-99999.0,'11111222,11111222,99999999' 
TABS,ioos:station:wmo:42044:1,2006-12-01T03:30:00Z,26.1914,-97.0507,2.0,168.985269,58.20215889,-99999.0,'11111222,11111222,99999999' 
TABS,ioos:station:wmo:42044:1,2006-12-01T04:00:00Z,26.1914,-97.0507,2.0,177.5997594,57.55048306,-99999.0,'11111222,11111222,99999999' 
TABS,ioos:station:wmo:42044:1,2006-12-01T04:30:00Z,26.1914,-97.0507,2.0,183.01257,55.17626301,-99999.0,'11111222,11111222,99999999' 
TABS,ioos:station:wmo:42044:1,2006-12-01T05:00:00Z,26.1914,-97.0507,2.0,188.2376106,50.38993253,-99999.0,'11111222,11111222,99999999' 
TABS,ioos:station:wmo:42044:1,2006-12-01T05:30:00Z,26.1914,-97.0507,2.0,173.5503599,55.01819063,-99999.0,'11111222,11111222,99999999' 
TABS,ioos:station:wmo:42044:1,2006-12-01T06:00:00Z,26.1914,-97.0507,2.0,182.5495887,48.32784808,-99999.0,'11111222,11111222,99999999' 
TABS,ioos:station:wmo:42044:1,2006-12-01T06:30:00Z,26.1914,-97.0507,2.0,183.360982,51.16802126,-99999.0,'11111222,11111222,99999999' 
TABS,ioos:station:wmo:42044:1,2006-12-01T07:00:00Z,26.1914,-97.0507,2.0,180.6935844,47.07345112,-99999.0,'11111222,11111222,99999999' 
TABS,ioos:station:wmo:42044:1,2006-12-01T07:30:00Z,26.1914,-97.0507,2.0,177.7870519,45.58398951,-99999.0,'11111222,11111222,99999999' 
TABS,ioos:station:wmo:42044:1,2006-12-01T08:00:00Z,26.1914,-97.0507,2.0,188.5419241,49.75190549,-99999.0,'11111222,11111222,99999999' 
TABS,ioos:station:wmo:42044:1,2006-12-01T08:30:00Z,26.1914,-97.0507,2.0,187.526661,41.9111274,-99999.0,'11111222,11111222,99999999' 
TABS,ioos:station:wmo:42044:1,2006-12-01T09:00:00Z,26.1914,-97.0507,2.0,186.5742454,38.08042148,-99999.0,'11111222,11111222,99999999' 
TABS,ioos:station:wmo:42044:1,2006-12-01T09:30:00Z,26.1914,-97.0507,2.0,172.7200132,35.35498975,-99999.0,'11111222,11111222,99999999' 
TABS,ioos:station:wmo:42044:1,2006-12-01T10:00:00Z,26.1914,-97.0507,2.0,171.0774509,37.33173583,-99999.0,'11111222,11111222,99999999' 
TABS,ioos:station:wmo:42044:1,2006-12-01T11:00:00Z,26.1914,-97.0507,2.0,172.5765612,30.26364486,-99999.0,'11111222,11111222,99999999' 
TABS,ioos:station:wmo:42044:1,2006-12-01T11:30:00Z,26.1914,-97.0507,2.0,178.0864853,27.55536245,-99999.0,'11111222,11111222,99999999' 
TABS,ioos:station:wmo:42044:1,2006-12-01T12:30:00Z,26.1914,-97.0507,2.0,188.3495947,28.02709047,-99999.0,'11111222,11111222,99999999' 
TABS,ioos:station:wmo:42044:1,2006-12-01T13:00:00Z,26.1914,-97.0507,2.0,173.9970952,23.81055438,-99999.0,'11111222,11111222,99999999' 
TABS,ioos:station:wmo:42044:1,2006-12-01T13:30:00Z,26.1914,-97.0507,2.0,201.6667216,21.36987833,-99999.0,'11111222,11111222,99999999' 
TABS,ioos:station:wmo:42044:1,2006-12-01T14:00:00Z,26.1914,-97.0507,2.0,175.8212303,21.9583697,-99999.0,'11111222,11111222,99999999' 
TABS,ioos:station:wmo:42044:1,2006-12-01T14:30:00Z,26.1914,-97.0507,2.0,182.7216822,18.53090662,-99999.0,'11111222,11111222,99999999' 
TABS,ioos:station:wmo:42044:1,2006-12-01T15:00:00Z,26.1914,-97.0507,2.0,201.7460163,15.43871756,-99999.0,'11111222,11111222,99999999' 
TABS,ioos:station:wmo:42044:1,2006-12-01T15:30:00Z,26.1914,-97.0507,2.0,185.5661087,14.22708684,-99999.0,'11111222,11111222,99999999' 
TABS,ioos:station:wmo:42044:1,2006-12-01T16:00:00Z,26.1914,-97.0507,2.0,185.4631521,10.60819023,-99999.0,'11111222,11111222,99999999' 
TABS,ioos:station:wmo:42044:1,2006-12-01T16:30:00Z,26.1914,-97.0507,2.0,179.6587481,10.08017857,-99999.0,'11111222,11111222,99999999' 
TABS,ioos:station:wmo:42044:1,2006-12-01T17:00:00Z,26.1914,-97.0507,2.0,193.4678829,8.071982408,-99999.0,'11133222,11111222,99999999' 
TABS,ioos:station:wmo:42044:1,2006-12-01T17:30:00Z,26.1914,-97.0507,2.0,189.8115156,8.626175282,-99999.0,'11133222,11111222,99999999' 
TABS,ioos:station:wmo:42044:1,2006-12-01T18:00:00Z,26.1914,-97.0507,2.0,222.1099966,5.189691706,-99999.0,'11133222,11111222,99999999' 
TABS,ioos:station:wmo:42044:1,2006-12-01T18:30:00Z,26.1914,-97.0507,2.0,180.7846123,0.73006849,-99999.0,'11133222,11111222,99999999' 
TABS,ioos:station:wmo:42044:1,2006-12-01T19:00:00Z,26.1914,-97.0507,2.0,241.7499096,1.52118375,-99999.0,'11133222,11111222,99999999' 
TABS,ioos:station:wmo:42044:1,2006-12-01T19:30:00Z,26.1914,-97.0507,2.0,301.429913,1.265701387,-99999.0,'11133222,11111222,99999999' 
TABS,ioos:station:wmo:42044:1,2006-12-01T20:00:00Z,26.1914,-97.0507,2.0,17.59259388,3.010813843,-99999.0,'11133222,11111222,99999999' 
TABS,ioos:station:wmo:42044:1,2006-12-01T20:30:00Z,26.1914,-97.0507,2.0,317.3444427,1.210165278,-99999.0,'11133222,11111222,99999999' 
TABS,ioos:station:wmo:42044:1,2006-12-01T21:00:00Z,26.1914,-97.0507,2.0,326.6339225,3.436422558,-99999.0,'11133222,11111222,99999999' 
TABS,ioos:station:wmo:42044:1,2006-12-01T21:30:00Z,26.1914,-97.0507,2.0,326.818499,5.627654929,-99999.0,'11133222,11111222,99999999' 
TABS,ioos:station:wmo:42044:1,2006-12-01T22:00:00Z,26.1914,-97.0507,2.0,1.914459308,7.484176641,-99999.0,'11133222,11111222,99999999' 
TABS,ioos:station:wmo:42044:1,2006-12-01T22:30:00Z,26.1914,-97.0507,2.0,0.739034805,8.530709232,-99999.0,'11133222,11111222,99999999' 
TABS,ioos:station:wmo:42044:1,2006-12-01T23:00:00Z,26.1914,-97.0507,2.0,356.912912,6.869970888,-99999.0,'11133222,11111222,99999999' 
TABS,ioos:station:wmo:42044:1,2006-12-01T23:30:00Z,26.1914,-97.0507,2.0,14.30184066,7.853387804,-99999.0,'11133222,11111222,99999999' 
TABS,ioos:station:wmo:42044:1,2006-12-02T00:00:00Z,26.1914,-97.0507,2.0,358.29236,8.723875286,-99999.0,'11133222,11111222,99999999' 
TABS,ioos:station:wmo:42044:1,2006-12-02T00:30:00Z,26.1914,-97.0507,2.0,2.290815145,11.2589964,-99999.0,'11111222,11111222,99999999' 
TABS,ioos:station:wmo:42044:1,2006-12-02T01:00:00Z,26.1914,-97.0507,2.0,333.5130952,13.16150827,-99999.0,'11111222,11111222,99999999' 
TABS,ioos:station:wmo:42044:1,2006-12-02T01:30:00Z,26.1914,-97.0507,2.0,351.438955,15.78589877,-99999.0,'11111222,11111222,99999999' 
TABS,ioos:station:wmo:42044:1,2006-12-02T02:00:00Z,26.1914,-97.0507,2.0,18.3910313,12.32972425,-99999.0,'11111222,11111222,99999999' 
TABS,ioos:station:wmo:42044:1,2006-12-02T02:30:00Z,26.1914,-97.0507,2.0,10.21415956,10.15086696,-99999.0,'11111222,11111222,99999999' 
TABS,ioos:station:wmo:42044:1,2006-12-02T03:00:00Z,26.1914,-97.0507,2.0,8.898039684,12.34860721,-99999.0,'11111222,11111222,99999999' 
TABS,ioos:station:wmo:42044:1,2006-12-02T03:30:00Z,26.1914,-97.0507,2.0,6.870186702,10.8680311,-99999.0,'11111222,11111222,99999999' 
TABS,ioos:station:wmo:42044:1,2006-12-02T04:00:00Z,26.1914,-97.0507,2.0,357.1037934,13.45719139,-99999.0,'11111222,11111222,99999999' 
TABS,ioos:station:wmo:42044:1,2006-12-02T04:30:00Z,26.1914,-97.0507,2.0,12.5082821,12.00493232,-99999.0,'11111222,11111222,99999999' 
TABS,ioos:station:wmo:42044:1,2006-12-02T05:00:00Z,26.1914,-97.0507,2.0,19.80109818,10.479604,-99999.0,'11111222,11111222,99999999' 
TABS,ioos:station:wmo:42044:1,2006-12-02T06:00:00Z,26.1914,-97.0507,2.0,25.17605825,10.88390555,-99999.0,'11111222,11111222,99999999' 
TABS,ioos:station:wmo:42044:1,2006-12-02T06:30:00Z,26.1914,-97.0507,2.0,22.97047843,9.557871102,-99999.0,'11133222,11111222,99999999' 
TABS,ioos:station:wmo:42044:1,2006-12-02T07:00:00Z,26.1914,-97.0507,2.0,17.57805307,8.244980291,-99999.0,'11133222,11111222,99999999' 
TABS,ioos:station:wmo:42044:1,2006-12-02T07:30:00Z,26.1914,-97.0507,2.0,27.71095967,7.827803012,-99999.0,'11133222,11111222,99999999' 
TABS,ioos:station:wmo:42044:1,2006-12-02T08:00:00Z,26.1914,-97.0507,2.0,45.48979968,7.446106365,-99999.0,'11133222,11111222,99999999' 
TABS,ioos:station:wmo:42044:1,2006-12-02T08:30:00Z,26.1914,-97.0507,2.0,16.71029801,5.042955483,-99999.0,'11133222,11111222,99999999' 
TABS,ioos:station:wmo:42044:1,2006-12-02T09:00:00Z,26.1914,-97.0507,2.0,36.6657602,7.854049911,-99999.0,'11133222,11111222,99999999' 
TABS,ioos:station:wmo:42044:1,2006-12-02T09:30:00Z,26.1914,-97.0507,2.0,9.039672124,6.237467435,-99999.0,'11133222,11111222,99999999' 
TABS,ioos:station:wmo:42044:1,2006-12-02T10:00:00Z,26.1914,-97.0507,2.0,49.10689697,6.812789443,-99999.0,'11133222,11111222,99999999' 
TABS,ioos:station:wmo:42044:1,2006-12-02T10:30:00Z,26.1914,-97.0507,2.0,33.15805681,5.375276737,-99999.0,'11133222,11111222,99999999' 
TABS,ioos:station:wmo:42044:1,2006-12-02T11:00:00Z,26.1914,-97.0507,2.0,27.99431626,2.151766716,-99999.0,'11133222,11111222,99999999' 
TABS,ioos:station:wmo:42044:1,2006-12-02T11:30:00Z,26.1914,-97.0507,2.0,6.641714066,1.469863939,-99999.0,'11133222,11111222,99999999' 
TABS,ioos:station:wmo:42044:1,2006-12-02T12:00:00Z,26.1914,-97.0507,2.0,29.0095786,4.928305997,-99999.0,'11133222,11111222,99999999' 
TABS,ioos:station:wmo:42044:1,2006-12-02T12:30:00Z,26.1914,-97.0507,2.0,21.39496153,2.878350222,-99999.0,'11133222,11111222,99999999' 
TABS,ioos:station:wmo:42044:1,2006-12-02T13:00:00Z,26.1914,-97.0507,2.0,340.6770713,1.631931371,-99999.0,'11133222,11111222,99999999' 
TABS,ioos:station:wmo:42044:1,2006-12-02T13:30:00Z,26.1914,-97.0507,2.0,340.4978076,2.036860329,-99999.0,'11133222,11111222,99999999' 
TABS,ioos:station:wmo:42044:1,2006-12-02T14:00:00Z,26.1914,-97.0507,2.0,214.9022035,0.524309069,-99999.0,'11133222,11111222,99999999' 
TABS,ioos:station:wmo:42044:1,2006-12-02T14:30:00Z,26.1914,-97.0507,2.0,278.4387792,3.679836953,-99999.0,'11133222,11111222,99999999' 
TABS,ioos:station:wmo:42044:1,2006-12-02T15:00:00Z,26.1914,-97.0507,2.0,324.4626158,3.010813843,-99999.0,'11133222,11111222,99999999' 
TABS,ioos:station:wmo:42044:1,2006-12-02T15:30:00Z,26.1914,-97.0507,2.0,307.3451665,2.654091182,-99999.0,'11133222,11111222,99999999' 
TABS,ioos:station:wmo:42044:1,2006-12-02T16:00:00Z,26.1914,-97.0507,2.0,315.6823745,1.188023569,-99999.0,'11133222,11111222,99999999' 
TABS,ioos:station:wmo:42044:1,2006-12-02T16:30:00Z,26.1914,-97.0507,2.0,349.4506236,2.512468905,-99999.0,'11133222,11111222,99999999' 
TABS,ioos:station:wmo:42044:1,2006-12-02T17:00:00Z,26.1914,-97.0507,2.0,263.8477501,1.679672587,-99999.0,'11133222,11111222,99999999' 
TABS,ioos:station:wmo:42044:1,2006-12-02T17:30:00Z,26.1914,-97.0507,2.0,216.2535425,0.558032257,-99999.0,'11133222,11111222,99999999' 
TABS,ioos:station:wmo:42044:1,2006-12-02T18:00:00Z,26.1914,-97.0507,2.0,248.0300342,1.897814533,-99999.0,'11133222,11111222,99999999' 
TABS,ioos:station:wmo:42044:1,2006-12-02T19:30:00Z,26.1914,-97.0507,2.0,152.7061193,2.813201024,-99999.0,'11133222,11111222,99999999' 
TABS,ioos:station:wmo:42044:1,2006-12-02T20:00:00Z,26.1914,-97.0507,2.0,177.7801392,3.872905886,-99999.0,'11133222,11111222,99999999' 
TABS,ioos:station:wmo:42044:1,2006-12-02T20:30:00Z,26.1914,-97.0507,2.0,176.2357635,1.523285922,-99999.0,'11133222,11111222,99999999' 
TABS,ioos:station:wmo:42044:1,2006-12-02T21:00:00Z,26.1914,-97.0507,2.0,175.7921589,3.679918477,-99999.0,'11133222,11111222,99999999' 
TABS,ioos:station:wmo:42044:1,2006-12-02T21:30:00Z,26.1914,-97.0507,2.0,201.2955582,5.892342488,-99999.0,'11133222,11111222,99999999' 
TABS,ioos:station:wmo:42044:1,2006-12-02T22:00:00Z,26.1914,-97.0507,2.0,181.0686142,5.360932755,-99999.0,'11133222,11111222,99999999' 
TABS,ioos:station:wmo:42044:1,2006-12-02T22:30:00Z,26.1914,-97.0507,2.0,185.132332,5.030168983,-99999.0,'11133222,11111222,99999999' 
TABS,ioos:station:wmo:42044:1,2006-12-02T23:30:00Z,26.1914,-97.0507,2.0,180.4944159,6.950258988,-99999.0,'11133222,11111222,99999999' 
TABS,ioos:station:wmo:42044:1,2006-12-03T00:00:00Z,26.1914,-97.0507,2.0,181.8904156,10.30561012,-99999.0,'11111222,11111222,99999999' 
TABS,ioos:station:wmo:42044:1,2006-12-03T00:30:00Z,26.1914,-97.0507,2.0,190.7773797,12.03224418,-99999.0,'11111222,11111222,99999999' 
TABS,ioos:station:wmo:42044:1,2006-12-03T01:00:00Z,26.1914,-97.0507,2.0,183.9701065,10.97634274,-99999.0,'11111222,11111222,99999999' 
TABS,ioos:station:wmo:42044:1,2006-12-03T01:30:00Z,26.1914,-97.0507,2.0,186.0607696,12.69094165,-99999.0,'11111222,11111222,99999999' 
TABS,ioos:station:wmo:42044:1,2006-12-03T02:00:00Z,26.1914,-97.0507,2.0,183.2339466,11.6986324,-99999.0,'11111222,11111222,99999999' 
TABS,ioos:station:wmo:42044:1,2006-12-03T02:30:00Z,26.1914,-97.0507,2.0,179.5829329,12.3703274,-99999.0,'11111222,11111222,99999999' 
TABS,ioos:station:wmo:42044:1,2006-12-03T03:00:00Z,26.1914,-97.0507,2.0,181.7189817,13.66615162,-99999.0,'11111222,11111222,99999999' 
TABS,ioos:station:wmo:42044:1,2006-12-03T03:30:00Z,26.1914,-97.0507,2.0,183.2647943,11.93938022,-99999.0,'11111222,11111222,99999999' 
TABS,ioos:station:wmo:42044:1,2006-12-03T04:00:00Z,26.1914,-97.0507,2.0,184.2470371,13.63745211,-99999.0,'11111222,11111222,99999999' 
TABS,ioos:station:wmo:42044:1,2006-12-03T04:30:00Z,26.1914,-97.0507,2.0,171.5975766,16.97216839,-99999.0,'11111222,11111222,99999999' 
TABS,ioos:station:wmo:42044:1,2006-12-03T05:00:00Z,26.1914,-97.0507,2.0,181.1848142,16.92361959,-99999.0,'11111222,11111222,99999999' 
TABS,ioos:station:wmo:42044:1,2006-12-03T05:30:00Z,26.1914,-97.0507,2.0,184.3691173,14.9634889,-99999.0,'11111222,11111222,99999999' 
TABS,ioos:station:wmo:42044:1,2006-12-03T06:00:00Z,26.1914,-97.0507,2.0,189.8445918,18.71559777,-99999.0,'11111222,11111222,99999999' 
TABS,ioos:station:wmo:42044:1,2006-12-03T06:30:00Z,26.1914,-97.0507,2.0,176.4035363,21.52238137,-99999.0,'11111222,11111222,99999999' 
TABS,ioos:station:wmo:42044:1,2006-12-03T07:00:00Z,26.1914,-97.0507,2.0,181.5381212,20.48738392,-99999.0,'11111222,11111222,99999999' 
TABS,ioos:station:wmo:42044:1,2006-12-03T07:30:00Z,26.1914,-97.0507,2.0,179.6368356,22.10044343,-99999.0,'11111222,11111222,99999999' 
TABS,ioos:station:wmo:42044:1,2006-12-03T08:00:00Z,26.1914,-97.0507,2.0,187.951774,23.20311402,-99999.0,'11111222,11111222,99999999' 
TABS,ioos:station:wmo:42044:1,2006-12-03T08:30:00Z,26.1914,-97.0507,2.0,181.4648933,23.85779956,-99999.0,'11111222,11111222,99999999' 
TABS,ioos:station:wmo:42044:1,2006-12-03T09:00:00Z,26.1914,-97.0507,2.0,184.4327768,26.91050538,-99999.0,'11111222,11111222,99999999' 
TABS,ioos:station:wmo:42044:1,2006-12-03T09:30:00Z,26.1914,-97.0507,2.0,186.3848807,25.35729481,-99999.0,'11111222,11111222,99999999' 
TABS,ioos:station:wmo:42044:1,2006-12-03T10:00:00Z,26.1914,-97.0507,2.0,184.5413451,31.06754738,-99999.0,'11111222,11111222,99999999' 
TABS,ioos:station:wmo:42044:1,2006-12-03T10:30:00Z,26.1914,-97.0507,2.0,188.6359219,29.3022337,-99999.0,'11111222,11111222,99999999' 
TABS,ioos:station:wmo:42044:1,2006-12-03T11:30:00Z,26.1914,-97.0507,2.0,182.205231,30.92290575,-99999.0,'11111222,11111222,99999999' 
TABS,ioos:station:wmo:42044:1,2006-12-03T12:00:00Z,26.1914,-97.0507,2.0,184.5509489,31.12815125,-99999.0,'11111222,11111222,99999999' 
TABS,ioos:station:wmo:42044:1,2006-12-03T12:30:00Z,26.1914,-97.0507,2.0,187.5389724,34.14517389,-99999.0,'11111222,11111222,99999999' 
TABS,ioos:station:wmo:42044:1,2006-12-03T13:00:00Z,26.1914,-97.0507,2.0,185.2217223,35.81866134,-99999.0,'11111222,11111222,99999999' 
TABS,ioos:station:wmo:42044:1,2006-12-03T13:30:00Z,26.1914,-97.0507,2.0,185.6080355,35.09800279,-99999.0,'11111222,11111222,99999999' 
TABS,ioos:station:wmo:42044:1,2006-12-03T14:00:00Z,26.1914,-97.0507,2.0,189.9395202,35.51305816,-99999.0,'11111222,11111222,99999999' 
TABS,ioos:station:wmo:42044:1,2006-12-03T14:30:00Z,26.1914,-97.0507,2.0,182.6349028,36.75886968,-99999.0,'11111222,11111222,99999999' 
TABS,ioos:station:wmo:42044:1,2006-12-03T15:00:00Z,26.1914,-97.0507,2.0,195.4788369,38.14354467,-99999.0,'11111222,11111222,99999999' 
TABS,ioos:station:wmo:42044:1,2006-12-03T15:30:00Z,26.1914,-97.0507,2.0,184.668793,43.24350125,-99999.0,'11111222,11111222,99999999' 
TABS,ioos:station:wmo:42044:1,2006-12-03T16:00:00Z,26.1914,-97.0507,2.0,191.5234843,36.79164307,-99999.0,'11111222,11111222,99999999' 
TABS,ioos:station:wmo:42044:1,2006-12-03T16:30:00Z,26.1914,-97.0507,2.0,194.7776612,39.91015535,-99999.0,'11111222,11111222,99999999' 
TABS,ioos:station:wmo:42044:1,2006-12-03T17:00:00Z,26.1914,-97.0507,2.0,186.1373134,43.39875689,-99999.0,'11111222,11111222,99999999' 
TABS,ioos:station:wmo:42044:1,2006-12-03T17:30:00Z,26.1914,-97.0507,2.0,195.2785191,40.37712347,-99999.0,'11111222,11111222,99999999' 
TABS,ioos:station:wmo:42044:1,2006-12-03T18:00:00Z,26.1914,-97.0507,2.0,178.2813003,42.34904721,-99999.0,'11111222,11111222,99999999' 
TABS,ioos:station:wmo:42044:1,2006-12-03T18:30:00Z,26.1914,-97.0507,2.0,187.2708532,46.22169404,-99999.0,'11111222,11111222,99999999' 
TABS,ioos:station:wmo:42044:1,2006-12-03T19:00:00Z,26.1914,-97.0507,2.0,188.95036,43.25674283,-99999.0,'11111222,11111222,99999999' 
TABS,ioos:station:wmo:42044:1,2006-12-03T19:30:00Z,26.1914,-97.0507,2.0,186.7480562,45.2736568,-99999.0,'11111222,11111222,99999999' 
TABS,ioos:station:wmo:42044:1,2006-12-03T20:00:00Z,26.1914,-97.0507,2.0,182.1908183,47.60480333,-99999.0,'11111222,11111222,99999999' 
TABS,ioos:station:wmo:42044:1,2006-12-03T20:30:00Z,26.1914,-97.0507,2.0,181.0098703,44.2468756,-99999.0,'11111222,11111222,99999999' 
TABS,ioos:station:wmo:42044:1,2006-12-03T21:00:00Z,26.1914,-97.0507,2.0,191.8397964,44.3025699,-99999.0,'11111222,11111222,99999999' 
TABS,ioos:station:wmo:42044:1,2006-12-03T21:30:00Z,26.1914,-97.0507,2.0,181.4449828,40.44286464,-99999.0,'11111222,11111222,99999999' 
TABS,ioos:station:wmo:42044:1,2006-12-03T22:00:00Z,26.1914,-97.0507,2.0,176.6470965,48.90370129,-99999.0,'11111222,11111222,99999999' 
TABS,ioos:station:wmo:42044:1,2006-12-03T22:30:00Z,26.1914,-97.0507,2.0,177.645247,50.14233341,-99999.0,'11111222,11111222,99999999' 
TABS,ioos:station:wmo:42044:1,2006-12-03T23:00:00Z,26.1914,-97.0507,2.0,186.1157267,45.4285648,-99999.0,'11111222,11111222,99999999' 
TABS,ioos:station:wmo:42044:1,2006-12-03T23:30:00Z,26.1914,-97.0507,2.0,175.8320888,50.22280956,-99999.0,'11111222,11111222,99999999' 
TABS,ioos:station:wmo:42044:1,2006-12-04T00:00:00Z,26.1914,-97.0507,2.0,171.6095613,48.59005042,-99999.0,'11111222,11111222,99999999' 
TABS,ioos:station:wmo:42044:1,2006-12-04T00:30:00Z,26.1914,-97.0507,2.0,179.633249,50.02102358,-99999.0,'11111222,11111222,99999999' 
TABS,ioos:station:wmo:42044:1,2006-12-04T01:00:00Z,26.1914,-97.0507,2.0,182.5400458,47.60678208,-99999.0,'11111222,11111222,99999999' 
TABS,ioos:station:wmo:42044:1,2006-12-04T01:30:00Z,26.1914,-97.0507,2.0,171.9236728,48.04651288,-99999.0,'11111222,11111222,99999999' 
TABS,ioos:station:wmo:42044:1,2006-12-04T02:00:00Z,26.1914,-97.0507,2.0,178.0570422,46.01645032,-99999.0,'11111222,11111222,99999999' 
TABS,ioos:station:wmo:42044:1,2006-12-04T02:30:00Z,26.1914,-97.0507,2.0,175.0325191,50.46954824,-99999.0,'11111222,11111222,99999999' 
TABS,ioos:station:wmo:42044:1,2006-12-04T03:00:00Z,26.1914,-97.0507,2.0,176.6656391,54.16167833,-99999.0,'11111222,11111222,99999999' 
TABS,ioos:station:wmo:42044:1,2006-12-04T04:00:00Z,26.1914,-97.0507,2.0,179.8875919,45.96008812,-99999.0,'11111222,11111222,99999999' 
TABS,ioos:station:wmo:42044:1,2006-12-04T04:30:00Z,26.1914,-97.0507,2.0,183.3284545,47.18961432,-99999.0,'11111222,11111222,99999999' 
TABS,ioos:station:wmo:42044:1,2006-12-04T05:00:00Z,26.1914,-97.0507,2.0,183.6454894,44.82070281,-99999.0,'11111222,11111222,99999999' 
TABS,ioos:station:wmo:42044:1,2006-12-04T05:30:00Z,26.1914,-97.0507,2.0,175.9018294,42.95983473,-99999.0,'11111222,11111222,99999999' 
TABS,ioos:station:wmo:42044:1,2006-12-04T06:00:00Z,26.1914,-97.0507,2.0,183.7424987,39.52429633,-99999.0,'11111222,11111222,99999999' 
TABS,ioos:station:wmo:42044:1,2006-12-04T06:30:00Z,26.1914,-97.0507,2.0,178.8635655,40.84803178,-99999.0,'11111222,11111222,99999999' 
TABS,ioos:station:wmo:42044:1,2006-12-04T07:00:00Z,26.1914,-97.0507,2.0,182.9604913,43.36788789,-99999.0,'11111222,11111222,99999999' 
TABS,ioos:station:wmo:42044:1,2006-12-04T07:30:00Z,26.1914,-97.0507,2.0,178.0659349,43.26464145,-99999.0,'11111222,11111222,99999999' 
TABS,ioos:station:wmo:42044:1,2006-12-04T08:00:00Z,26.1914,-97.0507,2.0,180.8555945,36.15403297,-99999.0,'11111222,11111222,99999999' 
TABS,ioos:station:wmo:42044:1,2006-12-04T08:30:00Z,26.1914,-97.0507,2.0,185.9990099,39.8985125,-99999.0,'11111222,11111222,99999999' 
TABS,ioos:station:wmo:42044:1,2006-12-04T09:00:00Z,26.1914,-97.0507,2.0,185.006527,40.90608023,-99999.0,'11111222,11111222,99999999' 
TABS,ioos:station:wmo:42044:1,2006-12-04T09:30:00Z,26.1914,-97.0507,2.0,181.729446,43.06962387,-99999.0,'11111222,11111222,99999999' 
TABS,ioos:station:wmo:42044:1,2006-12-04T10:00:00Z,26.1914,-97.0507,2.0,176.8397078,38.63875386,-99999.0,'11111222,11111222,99999999' 
TABS,ioos:station:wmo:42044:1,2006-12-04T10:30:00Z,26.1914,-97.0507,2.0,178.0964866,42.45342153,-99999.0,'11111222,11111222,99999999' 
TABS,ioos:station:wmo:42044:1,2006-12-04T11:00:00Z,26.1914,-97.0507,2.0,186.7181235,39.32000127,-99999.0,'11111222,11111222,99999999' 
TABS,ioos:station:wmo:42044:1,2006-12-04T11:30:00Z,26.1914,-97.0507,2.0,173.3050414,39.97256059,-99999.0,'11111222,11111222,99999999' 
TABS,ioos:station:wmo:42044:1,2006-12-04T12:00:00Z,26.1914,-97.0507,2.0,184.832579,37.15208339,-99999.0,'11111222,11111222,99999999' 
TABS,ioos:station:wmo:42044:1,2006-12-04T12:30:00Z,26.1914,-97.0507,2.0,177.4339765,37.52762316,-99999.0,'11111222,11111222,99999999' 
TABS,ioos:station:wmo:42044:1,2006-12-04T13:00:00Z,26.1914,-97.0507,2.0,167.9442857,39.78748798,-99999.0,'11111222,11111222,99999999' 
TABS,ioos:station:wmo:42044:1,2006-12-04T13:30:00Z,26.1914,-97.0507,2.0,171.3000183,40.39476451,-99999.0,'11111222,11111222,99999999' 
TABS,ioos:station:wmo:42044:1,2006-12-04T14:00:00Z,26.1914,-97.0507,2.0,171.6295891,38.46977515,-99999.0,'11111222,11111222,99999999' 
TABS,ioos:station:wmo:42044:1,2006-12-04T14:30:00Z,26.1914,-97.0507,2.0,186.5761057,35.10095868,-99999.0,'11111222,11111222,99999999' 
TABS,ioos:station:wmo:42044:1,2006-12-04T15:00:00Z,26.1914,-97.0507,2.0,175.4736174,40.67685583,-99999.0,'11111222,11111222,99999999' 
TABS,ioos:station:wmo:42044:1,2006-12-04T15:30:00Z,26.1914,-97.0507,2.0,178.8732419,34.5866853,-99999.0,'11111222,11111222,99999999' 
TABS,ioos:station:wmo:42044:1,2006-12-04T16:00:00Z,26.1914,-97.0507,2.0,178.8940088,37.82704456,-99999.0,'11111222,11111222,99999999' 
TABS,ioos:station:wmo:42044:1,2006-12-04T16:30:00Z,26.1914,-97.0507,2.0,179.7312182,38.40042187,-99999.0,'11111222,11111222,99999999' 
TABS,ioos:station:wmo:42044:1,2006-12-04T17:00:00Z,26.1914,-97.0507,2.0,180.9999316,40.67619697,-99999.0,'11111222,11111222,99999999' 
TABS,ioos:station:wmo:42044:1,2006-12-04T17:30:00Z,26.1914,-97.0507,2.0,187.7752663,37.4745487,-99999.0,'11111222,11111222,99999999' 
TABS,ioos:station:wmo:42044:1,2006-12-04T18:00:00Z,26.1914,-97.0507,2.0,184.620783,37.36144671,-99999.0,'11111222,11111222,99999999' 
TABS,ioos:station:wmo:42044:1,2006-12-04T18:30:00Z,26.1914,-97.0507,2.0,186.2175232,32.0384675,-99999.0,'11111222,11111222,99999999' 
TABS,ioos:station:wmo:42044:1,2006-12-04T19:00:00Z,26.1914,-97.0507,2.0,186.8882508,34.85157672,-99999.0,'11111222,11111222,99999999' 
TABS,ioos:station:wmo:42044:1,2006-12-04T19:30:00Z,26.1914,-97.0507,2.0,183.4001295,35.74292657,-99999.0,'11111222,11111222,99999999' 
TABS,ioos:station:wmo:42044:1,2006-12-04T20:00:00Z,26.1914,-97.0507,2.0,186.981529,33.23645137,-99999.0,'11111222,11111222,99999999' 